Dewpoint
65 64 63 65 66 66 65 64 64 64 64 62 61 61 60 60 60 59 59 58 57 56 56 56 55 54 56 54 52 52 49 52
64 63 66 66 66 64 63 63 62 61 60 60 59 59 59 59 59 59 59 58 57 56 56 55 54 55 56 54 52 51 51 54
62 65 65 65 65 63 62 61 60 59 60 59 58 58 59 59 58 59 59 58 57 57 57 56 56 53 55 52 50 49 52 52
64 64 64 64 63 62 61 60 59 59 58 58 58 58 59 60 59 59 59 59 59 59 59 56 53 52 51 50 49 49 48 50
63 63 63 62 61 60 59 58 57 57 57 57 58 60 60 59 60 60 60 60 58 53 51 51 49 49 48 47 47 47 47 47
62 63 61 59 59 57 56 56 58 59 61 61 61 60 59 59 59 56 54 53 51 49 48 48 46 45 43 41 43 41 39 39
60 61 56 58 58 57 59 61 62 62 62 62 61 60 60 56 55 53 51 50 48 46 45 43 42 40 39 38 38 35 34 36
56 56 56 59 59 59 60 60 60 61 61 61 60 60 57 54 52 50 48 48 46 44 42 40 38 37 35 37 36 34 35 35
54 56 60 58 57 57 57 58 59 59 60 59 57 55 53 51 49 47 47 47 44 42 40 38 37 36 34 34 34 34 33 33
56 60 58 56 56 56 55 57 57 57 57 55 54 52 49 47 46 47 49 46 43 41 39 37 36 35 33 32 31 33 32 33
57 58 57 56 56 56 55 55 55 55 54 52 51 50 48 47 46 47 46 44 43 41 39 37 35 34 32 30 30 31 31 33
58 58 57 57 56 56 56 54 54 53 50 49 49 50 49 48 47 44 43 40 41 38 36 37 36 34 32 30 32 31 31 32
58 57 56 56 55 55 54 52 53 50 50 49 48 48 48 46 45 42 40 38 38 37 37 35 34 35 31 33 32 31 31 31
57 56 56 56 55 55 55 53 52 49 49 49 46 47 46 44 42 40 38 38 37 36 36 35 35 35 32 32 29 30 31 31
56 56 56 56 55 55 53 50 49 48 47 46 46 45 44 42 40 38 37 37 36 36 36 35 33 35 35 32 30 29 31 32
57 56 56 56 56 56 51 48 46 46 46 46 46 44 42 40 39 38 38 39 37 38 38 37 37 35 35 34 34 33 31 30
57 57 57 57 57 56 51 47 46 46 47 46 46 44 43 41 39 38 39 38 37 36 37 36 37 35 34 35 34 34 34 32
58 57 57 57 56 52 49 46 46 46 46 44 41 38 38 38 37 37 36 35 35 35 35 35 36 38 37 36 35 34 33 33
57 56 52 50 48 48 46 44 43 42 40 37 35 36 37 36 35 32 32 32 31 31 31 32 33 35 37 37 37 36 36 36
53 49 47 45 42 41 39 39 39 39 38 38 38 37 34 34 31 30 29 29 30 31 32 32 34 37 37 37 36 36 37 37
Wind_Speed
16 18 22 23 21 20 20 19 17 16 17 18 17 17 18 17 15 13 12 10 8 6 10 11 12 13 14 18 19 13 12 9
25 19 16 14 16 19 20 19 17 16 17 16 17 17 16 14 12 10 9 6 4 6 8 9 10 12 13 14 18 14 11 9
25 19 13 12 14 15 19 19 18 15 14 14 14 10 11 9 7 7 5 4 4 8 8 10 10 14 15 14 15 12 9 6
13 18 16 15 12 13 14 12 11 11 12 11 7 8 7 4 6 5 5 6 8 7 9 12 15 12 12 13 10 9 8 4
16 16 15 12 13 13 12 12 11 8 9 7 5 3 5 5 7 6 5 5 9 14 13 14 15 15 15 15 15 15 13 11
9 16 14 12 13 13 13 10 7 7 8 11 12 11 10 9 12 14 14 10 14 12 13 13 16 14 15 15 16 15 14 13
14 16 14 13 12 10 9 10 13 13 12 10 11 13 14 14 12 13 12 11 13 13 14 14 14 15 14 15 16 15 15 14
17 16 13 14 13 15 15 14 13 12 12 12 14 15 16 15 12 12 12 12 13 14 14 14 14 15 16 14 14 15 15 16
17 17 16 18 16 14 12 12 13 14 13 13 15 15 15 15 13 12 11 11 12 13 14 15 15 12 12 13 15 15 17 18
15 15 16 18 16 14 12 12 13 13 12 12 14 15 15 14 13 9 9 11 12 13 9 10 10 10 8 11 12 11 13 13
17 18 19 18 16 15 14 13 13 12 12 12 13 13 13 12 12 11 12 11 10 8 8 5 6 6 5 10 8 9 12 11
20 18 19 16 16 15 11 11 10 9 10 11 11 9 12 11 12 12 11 10 8 7 4 4 3 3 2 7 5 3 8 9
23 24 19 19 15 14 10 9 9 8 9 9 10 12 15 14 13 11 9 9 8 5 2 2 2 3 1 4 3 3 6 5
19 20 20 16 14 10 6 10 7 11 9 10 13 13 14 13 12 10 9 9 6 3 2 1 1 2 2 2 5 5 4 6
20 20 18 15 14 11 8 8 10 7 10 11 10 14 13 12 10 10 9 7 5 2 1 2 2 1 1 1 4 4 8 2
17 18 17 15 13 13 16 14 16 10 14 11 12 14 13 13 12 9 7 4 3 4 2 1 2 4 2 4 5 5 7 10
20 16 14 13 16 16 19 18 13 10 11 15 12 8 5 3 4 5 7 8 6 6 5 3 2 4 6 4 3 3 4 6
17 18 18 16 17 17 21 20 16 17 14 12 7 9 12 10 12 8 8 8 7 5 4 4 5 6 6 7 7 5 5 6
18 18 14 14 16 16 16 18 17 20 15 14 13 10 8 11 10 4 6 5 4 3 4 5 5 6 8 8 7 7 5 8
18 18 17 18 21 20 18 17 15 12 12 9 8 11 11 11 8 6 5 4 5 7 7 8 7 6 5 5 6 8 6 6
Wind_Direction
119 126 131 122 127 133 130 128 129 130 131 134 138 134 129 133 130 133 126 118 112 101 69 49 32 26 39 37 57 97 98 90
144 134 121 134 134 137 132 130 138 144 143 142 141 141 136 130 134 127 116 105 92 64 57 48 33 22 41 37 68 77 98 93
132 138 142 137 139 143 140 143 147 152 141 143 139 137 123 126 119 100 88 77 28 26 26 28 22 43 63 56 57 73 106 88
153 158 152 155 156 148 140 137 151 152 147 149 127 127 117 107 85 79 47 20 14 14 17 44 50 39 48 44 35 64 65 56
177 155 165 166 149 145 146 157 155 149 136 140 135 160 108 113 65 71 49 60 64 69 66 58 54 49 44 44 36 23 23 32
196 154 175 162 153 158 161 145 132 136 134 139 133 105 98 93 88 90 86 77 80 69 65 60 56 50 45 41 43 40 28 20
176 175 172 159 145 132 121 133 125 132 127 116 123 121 111 102 96 93 90 88 84 78 69 62 49 44 39 39 44 27 17 14
170 173 154 138 133 133 136 133 129 114 106 107 104 111 113 110 105 99 91 88 87 79 69 60 48 37 31 36 29 23 21 15
162 145 139 133 131 132 127 123 123 116 114 111 112 116 118 118 113 96 89 89 81 71 58 50 44 32 32 28 24 19 22 26
149 148 138 131 135 125 121 121 117 114 115 117 121 120 120 115 109 99 108 102 81 69 62 59 52 39 29 25 16 23 26 29
150 145 147 139 130 120 121 121 119 124 131 128 127 124 122 111 99 91 94 80 75 85 65 79 61 38 50 18 5 16 30 35
153 152 146 139 127 122 113 118 128 134 134 135 131 130 120 104 95 96 102 91 88 94 102 79 102 42 51 2 308 28 53 54
163 159 159 149 139 142 138 144 153 155 158 147 134 122 115 111 114 111 108 100 121 139 138 113 77 28 42 334 303 353 70 88
165 167 166 163 158 152 144 156 179 167 166 163 139 130 133 133 139 135 131 131 136 119 117 134 269 48 13 32 334 322 328 343
171 171 169 172 167 146 113 111 130 151 163 153 153 141 147 148 151 160 161 154 160 174 175 185 293 312 108 114 328 284 317 275
166 173 184 181 170 170 167 166 169 179 171 166 161 160 166 165 175 166 163 135 71 30 80 188 166 298 280 210 217 233 296 310
177 188 189 186 187 190 182 178 179 165 166 166 173 177 178 107 103 103 105 89 76 44 22 344 263 248 239 248 248 244 232 251
180 183 199 196 193 189 182 177 170 164 163 164 131 106 100 85 85 74 76 64 48 33 23 349 322 278 263 247 233 228 234 272
179 179 184 179 164 167 160 149 147 147 152 146 134 112 86 81 68 69 69 68 56 29 6 353 335 294 271 257 237 240 243 258
172 162 147 138 132 131 127 127 124 119 113 89 89 124 137 132 156 126 100 65 29 23 13 355 340 325 289 257 264 248 232 234